975  
ASUS43 KLSX 122357  
RWRMO  
 
WEATHER SUMMARY FOR MISSOURI  
NATIONAL WEATHER SERVICE SPRINGFIELD MO  
700 PM CDT WED AUG 12 2020  
 
NOTE: "FAIR" INDICATES FEW OR NO CLOUDS BELOW 12,000 FEET WITH NO  
SIGNIFICANT WEATHER AND/OR S TO VISIBILITY
.  
CURRENT SKY AND/OR WEATHER CONDITIONS ARE NOT AVAILABLE FOR  
CHILLICOTHE AND FARMINGTON.  
 
MOZ001>031-035>038-043-044-053-054-130100-   
..NORTHERN AND WESTERN MISSOURI
 
 
 
CITY SKY/WX TMP DP RH WIND PRES REMARKS
 
KANSAS CTY INT PTSUNNY 84 73 69 SE7 29.96S HX 90  
6HR MIN TEMP: 83; 6HR MAX TEMP: 88;  
 
LEE'S SUMMIT SUNNY 85 70 60 SE7 29.97S  
6HR MIN TEMP: 85; 6HR MAX TEMP: 89;  
 
ST JOSEPH CLOUDY 84 73 69 SE9 29.95S HX 90  
6HR MIN TEMP: 83; 6HR MAX TEMP: 88;  
 
CHILLICOTHE N/A 83 74 74 CALM 29.97F  
6HR MIN TEMP: 82; 6HR MAX TEMP: 87; 6HR PCP: 0.98;  
 
 

 
MOZ066>068-077>081-088>096-101>105-130100-   
..SOUTHWEST MISSOURI
 
 
 
CITY SKY/WX TMP DP RH WIND PRES REMARKS
 
SPRINGFIELD MOSUNNY 86 66 51 SE10 29.96R  
6HR MIN TEMP: 84; 6HR MAX TEMP: 88;  
 
BRANSON MOSUNNY 82 70 65 SE8 29.98R  
 

 
MOZ032>034-039>042-045>050-055>058-069>072-130100-   
..CENTRAL MISSOURI
 
 
 
CITY SKY/WX TMP DP RH WIND PRES REMARKS
 
COLUMBIA NOT AVBL  
JEFFERSON CITY SUNNY 87 71 58 E6 29.95S HX 93  
6HR MIN TEMP: 85; 6HR MAX TEMP: 89;  
 
ROLLA MOSUNNY 81 70 69 SE7 29.99R  
6HR MIN TEMP: 81; 6HR MAX TEMP: 87;  
 
SEDALIA SUNNY 85 71 63 E3 29.97R HX 90  
6HR MIN TEMP: 85; 6HR MAX TEMP: 89;  
 
 

 
MOZ051-052-059>065-130100-   
..EAST CENTRAL MISSOURI
 
 
 
CITY SKY/WX TMP DP RH WIND PRES REMARKS
 
ST LOUIS INTL MOSUNNY 83 70 64 E9 29.99S  
6HR MIN TEMP: 77; 6HR MAX TEMP: 85;  
 
 

 
MOZ072>076-082>087-097>100-106>115-130100-   
..SOUTH CENTRAL AND SOUTHEAST MISSOURI
 
 
 
CITY SKY/WX TMP DP RH WIND PRES REMARKS
 
CAPE GIRARDEAU PTCLDY 78 71 79 E5 29.99S  
6HR MIN TEMP: 76; 6HR MAX TEMP: 86; 6HR PCP: 0.06;  
 
POPLAR BLUFF CLOUDY 76 71 85 E5 29.98S  
6HR MIN TEMP: 75; 6HR MAX TEMP: 86;  
 
WEST PLAINS MOSUNNY 80 70 71 E8 30.00S  
6HR MIN TEMP: 80; 6HR MAX TEMP: 84;  
 
 

 
 
 
CLICK HERE TO GO TO PREVIOUS BULLETINS.

The Nexlab MO Page Main Text Page